Location: Pitton
(51.0667°N, 1.7000°W)
Time: 11:51:30
(UTC+00:00)

GP-B - Pass Details

Date: 17 September 2019
Orbit: 631 x 635 km, 89.8° (Epoch: 16 October)

Event Time Altitude Azimuth Distance (km) Brightness Sun altitude
Rises 18:43:15 0° 5° (N) 2,943 6.6 -4.9°
Reaches altitude 10° 18:45:34 10° 12° (NNE) 2,029 5.7 -5.2°
Maximum altitude 18:49:53 47° 86° (E) 844 3.4 -5.9°
Drops below altitude 10° 18:54:09 10° 161° (SSE) 2,011 5.4 -6.6°
Sets 18:56:26 0° 167° (SSE) 2,914 6.3 -6.9°
